North Bend, OR

5:54 AM PST on February 08, 2016 (GMT -0800)
North Bend Municipal

Weather History for KOTH - November, 2012

Change the Weather History Date:

Saturday, November 17, 2012

  Actual Average Record
Temperature  
Mean Temperature 50 °F 48 °F  
Max Temperature 55 °F 55 °F 71 °F (1965)
Min Temperature 45 °F 43 °F 26 °F (1916)
Degree Days  
Heating Degree Days 15 16  
Month to date heating degree days 215 256  
Since 1 July heating degree days 1114 1222  
Cooling Degree Days 0 0  
Month to date cooling degree days 0 0  
Year to date cooling degree days 1 2  
Moisture  
Dew Point 48 °F    
Average Humidity 96    
Maximum Humidity 100    
Minimum Humidity 92    
Precipitation  
Precipitation 1.07 in 0.35 in 2.21 in (1950)
Month to date precipitation 2.73 5.33  
Year to date precipitation 37.62 48.88  
Sea Level Pressure  
Sea Level Pressure 29.73 in    
Wind  
Wind Speed 10 mph (SSE)    
Max Wind Speed 22 mph    
Max Gust Speed 31 mph    
Visibility 8 miles    
Events      
T = Trace of Precipitation, MM = Missing Value Source: NWS Daily Summary

Daily Weather History Graph

Daily Weather History Graph

Search for Another Location

Airport or City:

Trip Planner

Search our weather history database for the weather conditions in past years. The results will help you decide how hot, cold, wet, or windy it might be!

Date:

Astronomy

Nov. 17, 2012 Rise Set
Actual Time 7:13 AM PST 4:49 PM PST
Civil Twilight 6:42 AM PST 5:21 PM PST
Nautical Twilight 6:07 AM PST 5:55 PM PST
Astronomical Twilight 5:34 AM PST 6:29 PM PST
Moon 11:02 AM PST (11/17) 9:07 PM PST (11/17)
Length of Visible Light 10h 38m
Length of Day
9h 36m
Waxing Crescent, 21% of the Moon is Illuminated
Nov 17
Waxing Crescent
Nov 20
First Quarter
Nov 28
Full
Dec 6
Last Quarter
Dec 13
New

Hourly Weather History & Observations

Time (PST) Temp. Windchill Dew Point Humidity Pressure Visibility Wind Dir Wind Speed Gust Speed Precip Events Conditions
12:15 AM 51.8 °F - 51.8 °F 100% 29.72 in 7.0 mi SE 10.4 mph - 0.04 in   Unknown
12:35 AM 51.8 °F - 51.8 °F 100% 29.72 in 9.0 mi SSE 8.1 mph - 0.05 in   Unknown
12:55 AM 51.8 °F - 50.0 °F 94% 29.71 in 8.0 mi SE 8.1 mph - 0.05 in   Unknown
1:15 AM 51.8 °F - 51.8 °F 100% 29.70 in 10.0 mi SE 6.9 mph - N/A   Unknown
1:35 AM 51.8 °F - 51.8 °F 100% 29.70 in 10.0 mi SE 9.2 mph - N/A   Unknown
1:55 AM 53.6 °F - 51.8 °F 94% 29.69 in 10.0 mi SSE 5.8 mph - N/A   Unknown
2:15 AM 53.6 °F - 51.8 °F 94% 29.69 in 10.0 mi SSE 6.9 mph - N/A   Unknown
2:35 AM 53.6 °F - 53.6 °F 100% 29.68 in 10.0 mi SE 9.2 mph - N/A   Unknown
2:55 AM 53.6 °F - 53.6 °F 100% 29.67 in 10.0 mi SSE 9.2 mph - N/A   Unknown
3:15 AM 53.6 °F - 53.6 °F 100% 29.67 in 5.0 mi SSE 6.9 mph - 0.01 in   Unknown
3:35 AM 53.6 °F - 53.6 °F 100% 29.66 in 6.0 mi SSE 6.9 mph - 0.04 in   Unknown
3:55 AM 53.6 °F - 53.6 °F 100% 29.65 in 7.0 mi South 6.9 mph - 0.05 in   Unknown
4:15 AM 53.6 °F - 53.6 °F 100% 29.64 in 5.0 mi SE 5.8 mph - 0.10 in   Unknown
4:35 AM 53.6 °F - 51.8 °F 94% 29.64 in 6.0 mi SSE 5.8 mph - 0.20 in   Unknown
4:55 AM 53.6 °F - 51.8 °F 94% 29.63 in 5.0 mi SSE 4.6 mph - 0.24 in   Unknown
5:15 AM 53.6 °F - 51.8 °F 94% 29.63 in 5.0 mi SSE 8.1 mph - 0.02 in   Unknown
5:35 AM 53.6 °F - 53.6 °F 100% 29.63 in 2.5 mi South 6.9 mph - 0.03 in   Unknown
5:55 AM 53.6 °F - 53.6 °F 100% 29.63 in 5.0 mi South 3.5 mph - 0.09 in   Unknown
6:15 AM 55.4 °F - 55.4 °F 100% 29.63 in 4.0 mi SW 12.7 mph 20.7 mph 0.01 in   Unknown
6:35 AM 53.6 °F - 51.8 °F 94% 29.63 in 7.0 mi SW 15.0 mph 20.7 mph 0.04 in   Unknown
6:55 AM 53.6 °F - 51.8 °F 94% 29.63 in 9.0 mi SSW 13.8 mph 19.6 mph 0.06 in   Unknown
7:15 AM 53.6 °F - 51.8 °F 94% 29.63 in 10.0 mi South 12.7 mph 18.4 mph N/A   Mostly Cloudy
7:35 AM 53.6 °F - 51.8 °F 94% 29.64 in 10.0 mi South 16.1 mph 25.3 mph N/A   Mostly Cloudy
7:55 AM 53.6 °F - 51.8 °F 94% 29.64 in 10.0 mi South 13.8 mph 20.7 mph N/A   Mostly Cloudy
8:15 AM 53.6 °F - 51.8 °F 94% 29.64 in 10.0 mi South 11.5 mph 19.6 mph N/A   Mostly Cloudy
8:35 AM 53.6 °F - 51.8 °F 94% 29.64 in 10.0 mi SSE 9.2 mph - N/A   Overcast
8:55 AM 53.6 °F - 51.8 °F 94% 29.64 in 3.0 mi SSE 8.1 mph - 0.01 in   Overcast
9:15 AM 53.6 °F - 53.6 °F 100% 29.64 in 2.5 mi South 8.1 mph - 0.01 in   Overcast
9:35 AM 50.0 °F - 48.2 °F 94% 29.67 in 2.5 mi WNW 15.0 mph 21.9 mph 0.09 in   Overcast
9:55 AM 48.2 °F - 48.2 °F 100% 29.69 in 1.5 mi West 21.9 mph 31.1 mph 0.13 in   Overcast
10:15 AM 48.2 °F - 46.4 °F 93% 29.71 in 1.5 mi WNW 20.7 mph - 0.03 in   Overcast
10:35 AM 48.2 °F - 46.4 °F 93% 29.72 in 3.0 mi West 16.1 mph 21.9 mph 0.04 in   Overcast
10:55 AM 48.2 °F - 46.4 °F 93% 29.73 in 3.0 mi West 13.8 mph - 0.06 in   Overcast
11:15 AM 48.2 °F - 46.4 °F 93% 29.73 in 7.0 mi West 13.8 mph - 0.03 in   Overcast
11:35 AM 48.2 °F - 46.4 °F 93% 29.74 in 10.0 mi West 8.1 mph - 0.05 in   Overcast
11:55 AM 48.2 °F - 46.4 °F 93% 29.75 in 5.0 mi WSW 5.8 mph - 0.10 in   Overcast
12:15 PM 46.4 °F 42.9 °F 44.6 °F 93% 29.75 in 4.0 mi SSW 6.9 mph - 0.06 in   Overcast
12:35 PM 46.4 °F 42.4 °F 44.6 °F 93% 29.76 in 4.0 mi South 8.1 mph - 0.12 in   Overcast
12:55 PM 46.4 °F 40.7 °F 44.6 °F 93% 29.74 in 3.0 mi SE 12.7 mph - 0.19 in   Overcast
1:15 PM 46.4 °F 39.2 °F 44.6 °F 93% 29.73 in 3.0 mi SE 18.4 mph - 0.03 in   Overcast
1:35 PM 46.4 °F 39.8 °F 44.6 °F 93% 29.74 in 3.0 mi SSE 16.1 mph - 0.03 in   Overcast
1:55 PM 46.4 °F 40.7 °F 44.6 °F 93% 29.74 in 10.0 mi SSE 12.7 mph - 0.03 in   Overcast
2:15 PM 44.6 °F 38.8 °F 44.6 °F 100% 29.73 in 10.0 mi SSE 11.5 mph 16.1 mph N/A   Overcast
2:35 PM 46.4 °F 41.5 °F 44.6 °F 93% 29.73 in 10.0 mi SSE 10.4 mph - N/A   Overcast
2:55 PM 46.4 °F 40.4 °F 44.6 °F 93% 29.74 in 10.0 mi SSE 13.8 mph - 0.01 in   Overcast
3:15 PM 46.4 °F 40.4 °F 44.6 °F 93% 29.74 in 10.0 mi SE 13.8 mph 20.7 mph N/A   Overcast
3:35 PM 46.4 °F 40.4 °F 44.6 °F 93% 29.76 in 10.0 mi SSE 13.8 mph - N/A   Overcast
3:55 PM 46.4 °F 40.7 °F 44.6 °F 93% 29.76 in 10.0 mi SSE 12.7 mph - N/A   Overcast
4:15 PM 46.4 °F 41.1 °F 44.6 °F 93% 29.76 in 10.0 mi SSE 11.5 mph - N/A   Mostly Cloudy
4:35 PM 46.4 °F 41.1 °F 44.6 °F 93% 29.77 in 10.0 mi SSE 11.5 mph - N/A   Mostly Cloudy
4:55 PM 44.6 °F 39.2 °F 44.6 °F 100% 29.78 in 10.0 mi SE 10.4 mph - N/A   Scattered Clouds
5:15 PM 44.6 °F 39.7 °F 44.6 °F 100% 29.78 in 10.0 mi SSE 9.2 mph - N/A   Scattered Clouds
5:35 PM 44.6 °F 39.7 °F 44.6 °F 100% 29.79 in 10.0 mi SE 9.2 mph - N/A   Scattered Clouds
5:55 PM 44.6 °F 39.2 °F 44.6 °F 100% 29.80 in 10.0 mi SSE 10.4 mph - N/A   Scattered Clouds
6:15 PM 44.6 °F 39.7 °F 42.8 °F 93% 29.80 in 7.0 mi SSE 9.2 mph - 0.02 in   Overcast
6:35 PM 44.6 °F 40.7 °F 42.8 °F 93% 29.80 in 9.0 mi SE 6.9 mph - 0.03 in   Overcast
6:55 PM 44.6 °F 40.7 °F 42.8 °F 93% 29.81 in 10.0 mi SSE 6.9 mph - 0.03 in   Mostly Cloudy
7:15 PM 44.6 °F 40.2 °F 44.6 °F 100% 29.81 in 10.0 mi SE 8.1 mph - N/A   Mostly Cloudy
7:35 PM 44.6 °F 40.2 °F 44.6 °F 100% 29.82 in 10.0 mi SSE 8.1 mph - N/A   Mostly Cloudy
7:55 PM 44.6 °F 40.7 °F 44.6 °F 100% 29.82 in 10.0 mi SSE 6.9 mph - N/A   Mostly Cloudy
8:15 PM 46.4 °F 41.1 °F 44.6 °F 93% 29.84 in 10.0 mi South 11.5 mph 16.1 mph N/A   Unknown
8:35 PM 44.6 °F 38.8 °F 42.8 °F 93% 29.84 in 10.0 mi SSE 11.5 mph - N/A   Unknown
8:55 PM 46.4 °F 41.9 °F 44.6 °F 93% 29.84 in 10.0 mi SSE 9.2 mph - N/A   Scattered Clouds
9:15 PM 46.4 °F 41.9 °F 44.6 °F 93% 29.84 in 10.0 mi SSE 9.2 mph - N/A   Scattered Clouds
9:35 PM 46.4 °F 43.5 °F 44.6 °F 93% 29.86 in 8.0 mi SSE 5.8 mph - 0.01 in   Scattered Clouds
9:55 PM 46.4 °F 42.4 °F 44.6 °F 93% 29.86 in 10.0 mi SE 8.1 mph - 0.02 in   Scattered Clouds
10:15 PM 46.4 °F 41.5 °F 46.4 °F 100% 29.85 in 10.0 mi SE 10.4 mph - N/A   Unknown
10:35 PM 44.6 °F 39.7 °F 42.8 °F 93% 29.86 in 10.0 mi SSE 9.2 mph - N/A   Unknown
10:55 PM 46.4 °F 41.1 °F 44.6 °F 93% 29.85 in 10.0 mi SE 11.5 mph - N/A   Unknown
11:15 PM 46.4 °F 42.4 °F 44.6 °F 93% 29.86 in 10.0 mi SSE 8.1 mph - N/A   Unknown
11:55 PM 46.4 °F 42.9 °F 44.6 °F 93% 29.87 in 10.0 mi SSE 6.9 mph - N/A   Unknown